Location: Keppel Henge
(44.7900°N, 80.9447°W)
Time: 05:27:44
(UTC-05:00)

Vanguard 1 Rocket - All Passes

Search period start: 17 January 2018 00:00
Search period end: 27 January 2018 00:00
Orbit: 656 x 4222 km, 34.3° (Epoch: 15 January)

Date Brightness Start Highest point End Pass type
(mag) Time Alt. Az. Time Alt. Az. Time Alt. Az.
17 Jan - 07:30:28 10° SSW 07:38:37 23° SSE 07:43:56 10° ESE daylight
17 Jan - 09:57:19 10° WSW 10:03:37 30° S 10:07:57 10° ESE daylight
17 Jan - 12:24:23 10° WSW 12:27:37 17° SSW 12:30:35 10° SSE daylight
18 Jan - 06:18:37 10° SSW 06:27:12 20° SSE 06:33:02 10° ESE visible
18 Jan - 08:44:51 10° SW 08:52:52 31° S 08:57:55 10° ESE daylight
18 Jan - 11:12:23 10° WSW 11:17:15 25° SSW 11:21:03 10° SE daylight
19 Jan - 05:07:44 10° S 05:15:24 16° SSE 05:21:07 10° ESE visible
19 Jan - 07:32:08 10° SW 07:41:48 29° S 07:47:40 10° ESE daylight
19 Jan - 10:00:04 10° WSW 10:06:47 32° S 10:11:16 10° SE daylight
19 Jan - 12:28:03 10° WSW 12:30:38 14° SSW 12:33:01 10° S daylight
20 Jan - 04:00:23 10° SSE 04:03:15 11° SSE 04:05:52 10° SE visible
20 Jan - 06:19:28 10° SSW 06:30:21 26° SSE 06:37:07 10° ESE visible
20 Jan - 08:47:17 10° WSW 08:56:03 35° S 09:01:20 10° ESE daylight
20 Jan - 11:15:31 10° WSW 11:20:20 23° SSW 11:24:02 10° SSE daylight
21 Jan - 05:07:21 10° SSW 05:18:30 22° SSE 05:25:56 10° ESE visible
21 Jan - 07:34:06 10° SW 07:44:58 35° S 07:51:14 10° ESE daylight
21 Jan - 10:02:54 10° WSW 10:09:53 32° SSW 10:14:29 10° SE daylight
21 Jan - 12:32:33 10° SW 12:33:34 11° SSW 12:34:32 10° SSW daylight
22 Jan - 03:56:37 10° S 04:06:18 16° SSE 04:13:30 10° ESE visible
22 Jan - 06:20:48 10° SW 06:33:29 32° SSE 06:40:52 10° ESE visible
22 Jan - 08:49:49 10° WSW 08:59:10 38° S 09:04:40 10° ESE daylight
22 Jan - 11:18:46 10° WSW 11:23:19 20° SSW 11:26:51 10° SSE daylight
23 Jan - 02:50:20 10° SSE 02:53:47 11° SE 02:56:55 10° SE visible
23 Jan - 05:07:51 10° SSW 05:21:34 28° SSE 05:30:02 10° ESE visible
23 Jan - 07:36:15 10° WSW 07:48:05 40° S 07:54:40 10° ESE daylight
23 Jan - 10:05:48 10° WSW 10:12:56 30° SSW 10:17:36 10° SE daylight
24 Jan - 03:55:48 10° SSW 04:09:16 23° SSE 04:18:24 10° ESE visible
24 Jan - 06:22:28 10° SW 06:36:34 38° S 06:44:25 10° ESE visible
24 Jan - 08:52:26 10° WSW 09:02:16 39° S 09:07:57 10° ESE daylight
24 Jan - 11:22:12 10° WSW 11:26:13 17° SSW 11:29:24 10° S daylight
25 Jan - 02:45:40 10° S 02:56:39 16° SE 03:05:09 10° ESE visible
25 Jan - 05:08:50 10° SW 05:24:35 34° SSE 05:33:47 10° ESE visible
25 Jan - 07:38:33 10° WSW 07:51:11 44° S 07:58:02 10° ESE daylight
25 Jan - 10:08:46 10° W 10:15:56 28° SSW 10:20:37 10° SE daylight
26 Jan - 03:55:55 10° SSW 04:12:11 29° SSE 04:22:32 10° E visible
26 Jan - 06:24:20 10° WSW 06:39:38 44° S 06:47:51 10° ESE visible
26 Jan - 08:55:08 10° WSW 09:05:19 39° SSW 09:11:09 10° SE daylight
26 Jan - 11:26:00 10° WSW 11:29:00 13° SW 11:31:31 10° S daylight
